Regional Weather Roundup
Issued by NWS

Home | Current Version | Previous Version | Text Only | Print | Product List | Glossary On
Versions: 1 2 3 4 5 6 7 8 9 10 11 12 13 14 15 16 17 18 19 20 21 22 23 24 25 26 27 28 29 30 31 32 33 34 35 36 37 38 39 40 41 42 43 44 45 46 47 48 49 50
000
ASUS43 KDMX 251108
RWRIA

WEATHER ROUNDUP FOR IOWA
NATIONAL WEATHER SERVICE DES MOINES IA
600 AM CDT WED MAY 25 2016

NOTE: "FAIR" INDICATES FEW OR NO CLOUDS BELOW 12,000 FEET WITH NO
SIGNIFICANT WEATHER AND/OR OBSTRUCTIONS TO VISIBILITY.

* - THESE STATIONS ARE NOT NWS STATIONS...THUS NOT UNDER NWS
QUALITY CONTROL.  THEY ALSO DO NOT REPORT WEATHER SUCH
AS PRECIPITATION OR FOG.

IAZ001>003-012>014-020>022-031>034-043>046-251200-
   NORTHWEST IOWA

CITY           SKY/WX    TMP DP  RH WIND       PRES   REMARKS
CARROLL *      CLOUDY    64  63  94 SE14      29.88R
CHEROKEE *     CLOUDY    64  64 100 SW6       29.87R
DENISON *      CLOUDY    63  61  94 E10       29.82S
LE MARS *      CLOUDY    66  61  82 SE10      29.83F
ORANGE CITY *  DRIZZLE   66  63  88 SE6       29.84F
SHELDON *      CLOUDY    66  63  88 S10       29.83S
SIOUX CITY     MOCLDY    65  59  81 SE9       29.82S
SPENCER        CLOUDY    65  61  87 S15       29.86R
STORM LAKE *   MOCLDY    64  61  88 SE8       29.87S
$$

IAZ055>058-069>071-079>083-090>094-251200-
   SOUTHWEST IOWA

CITY           SKY/WX    TMP DP  RH WIND       PRES   REMARKS
ATLANTIC *     CLEAR     64  64 100 NE9       29.80F
AUDUBON *        N/A     64  61  88 NE7       29.86S
CLARINDA *       N/A     64  63  94 MISG      29.83R
COUNCIL BLFS * CLOUDY    64  61  88 NW9       29.84R
CRESTON *      CLEAR     64  64 100 E10       29.86R
HARLAN  *        N/A    N/A N/A N/A MISG        N/A
LAMONI         CLOUDY    64  62  93 E6        29.83F
RED OAK *      CLOUDY    64  63  94 CALM      29.82R
SHENANDOAH *   PTCLDY    64  64 100 NE5       29.82R
$$

IAZ047>049-059>061-072>074-084-251200-
   CENTRAL IOWA

CITY           SKY/WX    TMP DP  RH WIND       PRES   REMARKS
AMES           TSTM      66  64  93 SE7       29.90R
ANKENY *       LGT RAIN  66  66 100 E7        29.90F
BOONE *        LGT RAIN  66  64  94 CALM      29.88F
CHARITON *     CLOUDY    64  64 100 E3        29.90R
DES MOINES     TSTM      66  63  90 E12       29.88F
GRINNELL*      CLOUDY    64  61  88 S5        29.92R
KNOXVILLE *    LGT RAIN  64  63  94 W6        29.90R
MARSHALLTOWN   CLOUDY    65  63  93 S8        29.90R
NEWTON *       CLOUDY    64  64 100 S9        29.92R FOG
PELLA *        HVY RAIN  64  63  94 SW5       29.93R VSB 1
PERRY *        LGT RAIN  66  64  94 SE21      29.87F
$$

IAZ004>006-015-016-023>025-035-036-251200-
   NORTH CENTRAL IOWA

CITY           SKY/WX    TMP DP  RH WIND       PRES   REMARKS
ALGONA *       PTCLDY    64  63  94 S8        29.89R
CLARION *      CLOUDY    64  64 100 S9        29.91R
ESTHERVILLE    CLOUDY    63  61  93 SE6       29.86R
FORT DODGE *   CLOUDY    64  61  88 S6        29.91R
MASON CITY     CLOUDY    63  61  93 SE8       29.88S
FOREST CITY *  CLOUDY    61  61 100 S5        29.88R
WEBSTER CITY * CLOUDY    64  64 100 S10G16    29.89R FOG
IOWA FALLS *   CLOUDY    66  63  88 S8        29.91R
$$

IAZ007>011-017>019-026>030-037>042-050>054-066-251200-
   NORTHEAST IOWA

CITY           SKY/WX    TMP DP  RH WIND       PRES   REMARKS
CEDAR RAPIDS   CLOUDY    63  63 100 E6        29.92R FOG
CHARLES CITY * CLEAR     64  64 100 SE8       29.90S
CLINTON *      CLEAR     63  61  93 SE7       29.97R
DECORAH *      CLEAR     64  63  94 CALM      29.92R FOG
DUBUQUE        CLEAR     64  62  93 S5        29.95R
MONTICELLO *   CLEAR     64  63  94 SE8       29.94R
OELWEIN *      CLEAR     64  64 100 SE7       29.92S
WATERLOO       CLOUDY    65  62  90 SE7       29.89R
$$

IAZ064-065-067-068-078-251200-
   EAST CENTRAL IOWA

CITY           SKY/WX    TMP DP  RH WIND       PRES   REMARKS
DAVENPORT      CLEAR     64  60  87 S8        29.96R
IOWA CITY      CLOUDY    64  62  93 SE6       29.94R
MT. PLEASANT * CLOUDY    66  66 100 SE7       29.93S
MUSCATINE *    PTCLDY    64  63  94 SE6       29.94R
QUAD CITIES    CLEAR     66  61  84 S7        29.95R
$$

IAZ062-063-075>077-085>089-095>099-251200-
   SOUTHEAST IOWA

CITY           SKY/WX    TMP DP  RH WIND       PRES   REMARKS
BURLINGTON     CLOUDY    63  63 100 S8        29.94R
FAIRFIELD *      N/A    N/A N/A N/A MISG        N/A
FORT MADISON * MOCLDY    64  63  94 S12       29.94F
KEOKUK *       CLOUDY    64  63  94 SE8       29.92F
OSKALOOSA *    RAIN      64  61  88 S12       29.91R
OTTUMWA        LGT RAIN  64  62  93 S10       29.90R
WASHINGTON *   CLOUDY    64  64 100 SE9       29.94R
$$

ABBREVIATIONS USED IN REMARKS
   TC - TEMPERATURES IN CELSIUS
  WCI - WIND CHILL INDEX
   HX - HEAT INDEX
  VSB - VISIBILITY
$$




USA.gov is the U.S. government's official web portal to all federal, state and local government web resources and services.